Terminal Aerodrome Forecast
Issued by NWS

Home | Current Version | Previous Version | Text Only | Print | Product List | Glossary On
Versions: 1 2 3 4 5 6 7 8 9 10 11 12 13 14 15 16 17 18 19 20 21 22 23 24 25 26 27 28 29 30 31 32 33 34 35 36 37 38 39 40 41 42 43 44 45 46 47 48 49 50
000
FTUS44 KHGX 271734
TAFIAH
TAF
KIAH 271734Z 2718/2824 17014G22KT P6SM VCTS BKN025CB OVC070
      TEMPO 2718/2722 VRB20G25KT 2SM TSRA BR BKN015CB
     FM280000 16015G23KT P6SM VCSH SCT020 BKN035
     FM280300 16008KT P6SM FEW025 SCT080
     FM280900 16005KT P6SM BKN015
     FM281500 17009KT P6SM BKN025
     FM281900 15010KT P6SM VCTS BKN040CB=

USA.gov is the U.S. government's official web portal to all federal, state and local government web resources and services.